Home   Weather   Lens   Past weeks

Flag for France Past Weather in Lens, Nord-Pas-de-Calais, France — Yesterday and Last 2 Weeks

Now
30 °F

Ice fog.


Feels Like: 23 °F
Forecast: 24 / 34 °F
Wind: 7 mph from East

Location: Lille Airport

Current Time: Jan 17, 2017 at 2:23:12 pm

Latest Report: Jan 17, 2017 at 1:30 pm


Visibility: 3 mi

Pressure: 30.63 "Hg

Humidity: 80%

Dew Point: 25 °F

Location of LensLocation

Past Weather in Lens — Graph

°F

Lens Temperature Yesterday

Maximum temperature yesterday: 37 °F (at 2:30 pm)
Minimum temperature yesterday: 28 °F (at 3:30 am)
Average temperature yesterday: 32 °F

High & Low Weather Summary for the Past Weeks

 TemperatureHumidityPressure
High54 °F (Jan 11, 1:30 pm)100% (Jan 2, 9:30 pm)30.72 "Hg (Jan 2, 9:30 pm)
Low23 °F (Jan 6, 9:00 am)62% (Jan 11, 6:30 pm)28.94 "Hg (Jan 12, 9:30 pm)
Average37 °F90%30.18 "Hg
* Reported Jan 2 1:00 pm — Jan 17 1:00 pm, Lens, Weather by CustomWeather, © 2017

Note: Actual official high and low records may vary slightly from our data, if they occured in-between our weather recording intervals... More about our weather records

Advertising

Lens Weather History for the Previous 24 Hours

Scroll right to see more
 ConditionsComfort  
Time TempWeatherWind HumidityBarometerVisibility
1:00 pm
Tue, Jan 17
28 °FIce fog.7 mph86%30.63 "Hg3 mi
12:30 pm28 °FIce fog.7 mph86%30.63 "Hg3 mi
12:00 pm28 °FIce fog.7 mph86%30.63 "Hg2 mi
11:30 am28 °FIce fog.8 mph86%30.63 "Hg2 mi
11:00 am28 °FIce fog.7 mph86%30.63 "Hg2 mi
10:30 am28 °FIce fog.8 mph86%30.63 "Hg2 mi
10:00 am28 °FIce fog.6 mph86%30.60 "Hg2 mi
9:30 am27 °FIce fog.6 mph93%30.60 "Hg2 mi
9:00 am27 °FIce fog.6 mph93%30.60 "Hg2 mi
8:30 am27 °FLight snow. Ice fog.6 mph93%30.57 "Hg3 mi
8:00 am27 °FIce fog.6 mph93%30.57 "Hg3 mi
7:30 am27 °FIce fog.8 mph93%30.57 "Hg3 mi
7:00 am27 °FIce fog.7 mph93%30.57 "Hg3 mi
6:30 am27 °FIce fog.7 mph93%30.54 "Hg3 mi
6:00 am27 °FIce fog.6 mph93%30.54 "Hg3 mi
5:30 am27 °FIce fog.7 mph93%30.54 "Hg3 mi
5:00 am27 °FIce fog.7 mph100%30.54 "Hg3 mi
4:30 am27 °FIce fog.7 mph100%30.54 "Hg2 mi
4:00 am27 °FIce fog.5 mph100%30.51 "Hg2 mi
3:30 am27 °FIce fog.7 mph100%30.51 "Hg2 mi
3:00 am27 °FIce fog.9 mph100%30.51 "Hg2 mi
2:30 am27 °FIce fog.6 mph93%30.51 "Hg3 mi
2:00 am27 °FIce fog.5 mph93%30.51 "Hg3 mi
1:30 am28 °FIce fog.5 mph93%30.48 "Hg3 mi
1:00 am28 °FIce fog.5 mph93%30.51 "Hg3 mi
12:30 am28 °FIce fog.5 mph93%30.48 "Hg3 mi
12:00 am28 °FClear.5 mph93%30.48 "Hg4 mi
11:30 pm
Mon, Jan 16
28 °FIce fog.5 mph100%30.48 "Hg3 mi
11:00 pm30 °FIce fog.5 mph93%30.48 "Hg3 mi
10:30 pm30 °FIce fog.5 mph93%30.45 "Hg3 mi
10:00 pm30 °FIce fog.3 mph93%30.45 "Hg2 mi
9:30 pm30 °FIce fog.6 mph100%30.45 "Hg2 mi
9:00 pm32 °FIce fog.7 mph93%30.42 "Hg2 mi
8:30 pm32 °FIce fog.6 mph100%30.42 "Hg2 mi
8:00 pm32 °FIce fog.2 mph100%30.39 "Hg2 mi
7:30 pm32 °FIce fog.3 mph93%30.39 "Hg2 mi
7:00 pm30 °FLight fog.No wind100%30.39 "Hg1 mi
6:30 pm32 °FLight fog.No wind100%30.39 "Hg2 mi
6:00 pm34 °FFog.No wind93%30.36 "Hg2 mi
5:30 pm34 °FLight rain. Fog.2 mph93%30.36 "Hg3 mi
5:00 pm36 °FFog.3 mph93%30.36 "Hg3 mi
4:30 pm37 °FFog.8 mph87%30.36 "Hg3 mi
4:00 pm37 °FFog.5 mph93%30.36 "Hg3 mi
3:30 pm37 °FFog.3 mph93%30.33 "Hg3 mi
3:00 pm37 °FFog.3 mph93%30.33 "Hg3 mi
2:30 pm37 °FFog.5 mph93%30.33 "Hg3 mi
2:00 pm36 °FFog.3 mph100%30.33 "Hg3 mi
Weather by CustomWeather, © 2017

See weather overviewHow to use our weather pages